Regional Weather Roundup
Issued by NWS Jackson, KY

Home | Current Version | Previous Version | Text Only | Print | Product List | Glossary On
Versions: 1 2 3 4 5 6 7 8 9 10 11 12 13 14 15 16 17 18 19 20 21 22 23 24 25 26 27 28 29 30 31 32 33 34 35 36 37 38 39 40 41 42 43 44 45 46 47 48 49 50
000
ASUS43 KJKL 241510
RWRJKL

EAST KENTUCKY HOURLY WEATHER ROUNDUP
NATIONAL WEATHER SERVICE JACKSON KY
1100 AM EDT THU MAY 24 2018

NOTE: "FAIR" INDICATES FEW OR NO CLOUDS BELOW 12,000 FEET WITH
NO SIGNIFICANT WEATHER AND/OR OBSTRUCTIONS TO VISIBILITY.

* THESE REPORTS ARE NOT UNDER NWS QUALITY CONTROL AND MAY NOT
  REPORT WEATHER SUCH AS PRECIPITATION AND FOG.

KYZ079-080-083-085-087-088-110-112-115-119-120-241600
...EASTERN KENTUCKY...

CITY           SKY/WX    TMP DP  RH WIND       PRES   REMARKS
JACKSON          N/A     72  62  71 VRB3      30.19F
LONDON           N/A     76  64  66 N3        30.18S
SOMERSET*        N/A     73  63  68 MISG      30.18S
MONTICELLO*      N/A     77  65  66 VRB7G17   30.18F
WILLIAMSBURG*    N/A     75  66  73 CALM      30.17F
MIDDLESBORO*     N/A     70  65  85 CALM      30.17F
HARLAN APT*      N/A     76  64  67 CALM      30.18S
PIKE CO APT*     N/A     70  65  84 N3        30.20S
BIG SANDY APT*   N/A     72  64  74 NE5       30.19S
MOREHEAD APT*    N/A     73  57  56 VRB6      30.22S
ASHLAND*         N/A     74  60  61 VRB3      30.20F
$$

KYZ035-036-041-042-044-050-067-078-099-241600
...CENTRAL KENTUCKY...

CITY           SKY/WX    TMP DP  RH WIND       PRES   REMARKS
MT STERLING*     N/A     72  61  68 E7        30.22S
FLEMING/MASON*   N/A     71  58  64 E9        30.22F
DANVILLE*        N/A     72  61  68 NE3       30.20F
LEXINGTON        N/A     74  60  61 VRB7      30.20F
FRANKFORT        N/A     73  58  59 NE7       30.19S
LOUISVILLE       N/A     77  55  46 NE7       30.18F
LEBANON*         N/A     73  61  64 N5        30.18F
GLASGOW*         N/A     76  64  64 CALM      30.16F
BOWLING GREEN    N/A     78  67  68 VRB3      30.15F
$$

KYZ091>093-OHZ055-061-077-WVZ005-015-034-035-042-241600
...SOUTHERN OHIO/WEST VIRGINIA...

CITY           SKY/WX    TMP DP  RH WIND       PRES   REMARKS
COVINGTON        N/A     73  56  54 E8        30.22F
COLUMBUS         N/A     76  45  33 SE12      30.23F
DAYTON           N/A     74  54  49 E8        30.25F
WILMINGTON       N/A     72  58  61 E8        30.23F
HUNTINGTON       N/A     72  57  59 NE9       30.19F
CHARLESTON       N/A     70  61  73 VRB3      30.19F
PINEVILLE*       N/A     75  62  63 MISG      30.25S
BECKLEY          N/A     71  58  63 SE8       30.25S
BLUEFIELD        N/A     69  60  73 VRB6      30.27R
LOGAN CO APT*    N/A     72  63  73 CALM      30.20S
$$

VAZ002-007-008-TNZ017-027-036-066-071-241600
...SOUTHWEST VIRGINIA/EAST TENNESSEE...

CITY           SKY/WX    TMP DP  RH WIND       PRES   REMARKS
WISE*            N/A     73  61  64 CALM      30.24S
JONESVILLE*      N/A     79  63  57 E6        30.19F
ABINGDON*        N/A     76  65  68 E9        30.22R
BRISTOL          N/A     77  64  64 CALM      30.18S
MORRISTOWN*    SUNNY     79  66  65 E3        30.15S
SEVIERVILLE*   SUNNY     79  68  69 NE8       30.13F
KNOXVILLE        N/A     78  67  68 VRB3      30.13S
LAFOLLETTE*    SUNNY     79  64  61 VRB3      30.19S
OAK RIDGE        N/A     80  66  62 VRB3      30.15S
CROSSVILLE       N/A     76  63  64 NE6       30.18F
NASHVILLE      PTSUNNY   82  66  58 NE5       30.14F
$$

...KEY TO REMARKS...
VSB - VISIBILITY IN MILES
WCI - WIND CHILL INDEX
HX  - HEAT INDEX

$$



USA.gov is the U.S. government's official web portal to all federal, state and local government web resources and services.